Time,TemperatureF,DewpointF,PressureIn,WindDirection,WindDirectionDegrees,WindSpeedMPH,WindSpeedGustMPH,Humidity,HourlyPrecipIn,Conditions,Clouds,dailyrainin,SoftwareType,DateUTC
2013-07-18 00:00:00,79.1,70.5,30.05,North,32767,-999.0,0.0,75,0.00,,,0.00,Wunderground v.1.15,2013-07-18 04:00:00,
2013-07-18 00:05:00,78.9,70.3,30.05,North,32767,-999.0,0.0,75,0.00,,,0.00,Wunderground v.1.15,2013-07-18 04:05:00,
2013-07-18 00:10:00,78.9,70.3,30.06,North,32767,-999.0,0.0,75,0.00,,,0.00,Wunderground v.1.15,2013-07-18 04:10:00,
2013-07-18 00:15:00,78.8,70.2,30.06,North,32767,-999.0,0.0,75,0.00,,,0.00,Wunderground v.1.15,2013-07-18 04:15:00,
2013-07-18 00:20:00,78.8,70.6,30.05,North,32767,-999.0,0.0,76,0.00,,,0.00,Wunderground v.1.15,2013-07-18 04:20:00,
2013-07-18 00:25:00,78.7,70.5,30.06,North,32767,-999.0,0.0,76,0.00,,,0.00,Wunderground v.1.15,2013-07-18 04:25:00,
2013-07-18 00:30:00,78.6,70.4,30.06,North,32767,-999.0,0.0,76,0.00,,,0.00,Wunderground v.1.15,2013-07-18 04:30:00,
2013-07-18 00:40:00,78.5,70.7,30.06,North,32767,-999.0,0.0,77,0.00,,,0.00,Wunderground v.1.15,2013-07-18 04:40:00,
2013-07-18 00:45:00,78.5,70.7,30.06,North,32767,-999.0,0.0,77,0.00,,,0.00,Wunderground v.1.15,2013-07-18 04:45:00,
2013-07-18 00:55:00,78.3,70.5,30.06,North,32767,-999.0,0.0,77,0.00,,,0.00,Wunderground v.1.15,2013-07-18 04:55:00,
2013-07-18 01:00:00,78.2,70.4,30.06,North,32767,-999.0,0.0,77,0.00,,,0.00,Wunderground v.1.15,2013-07-18 05:00:00,
2013-07-18 01:10:00,78.2,70.4,30.06,North,32767,-999.0,0.0,77,0.00,,,0.00,Wunderground v.1.15,2013-07-18 05:10:00,
2013-07-18 01:20:00,78.0,70.2,30.06,North,32767,-999.0,0.0,77,0.00,,,0.00,Wunderground v.1.15,2013-07-18 05:20:00,
2013-07-18 01:25:00,78.0,70.2,30.05,North,32767,-999.0,0.0,77,0.00,,,0.00,Wunderground v.1.15,2013-07-18 05:25:00,
2013-07-18 01:30:00,77.9,70.1,30.05,North,32767,-999.0,0.0,77,0.00,,,0.00,Wunderground v.1.15,2013-07-18 05:30:00,
2013-07-18 01:40:00,78.0,70.2,30.05,North,32767,-999.0,0.0,77,0.00,,,0.00,Wunderground v.1.15,2013-07-18 05:40:00,
2013-07-18 01:50:00,78.0,70.6,30.05,North,32767,-999.0,0.0,78,0.00,,,0.00,Wunderground v.1.15,2013-07-18 05:50:00,
2013-07-18 01:55:00,78.0,70.6,30.04,North,32767,-999.0,0.0,78,0.00,,,0.00,Wunderground v.1.15,2013-07-18 05:55:00,
2013-07-18 02:00:00,77.9,70.9,30.04,North,32767,-999.0,0.0,79,0.00,,,0.00,Wunderground v.1.15,2013-07-18 06:00:00,
2013-07-18 02:10:00,77.7,70.7,30.04,North,32767,-999.0,0.0,79,0.00,,,0.00,Wunderground v.1.15,2013-07-18 06:10:00,
2013-07-18 02:20:00,77.7,70.7,30.03,North,32767,-999.0,0.0,79,0.00,,,0.00,Wunderground v.1.15,2013-07-18 06:20:00,
2013-07-18 02:25:00,77.8,70.8,30.03,North,32767,-999.0,0.0,79,0.00,,,0.00,Wunderground v.1.15,2013-07-18 06:25:00,
2013-07-18 02:30:00,77.8,70.8,30.03,North,32767,-999.0,0.0,79,0.00,,,0.00,Wunderground v.1.15,2013-07-18 06:30:00,
2013-07-18 02:40:00,77.8,70.8,30.03,North,32767,-999.0,0.0,79,0.00,,,0.00,Wunderground v.1.15,2013-07-18 06:40:00,
2013-07-18 02:45:00,77.8,70.8,30.03,North,32767,-999.0,0.0,79,0.00,,,0.00,Wunderground v.1.15,2013-07-18 06:45:00,
2013-07-18 02:50:00,77.8,70.8,30.03,North,32767,-999.0,0.0,79,0.00,,,0.00,Wunderground v.1.15,2013-07-18 06:50:00,
2013-07-18 02:55:00,77.8,70.4,30.03,North,32767,-999.0,0.0,78,0.00,,,0.00,Wunderground v.1.15,2013-07-18 06:55:00,
2013-07-18 03:00:00,77.8,70.4,30.02,North,32767,-999.0,0.0,78,0.00,,,0.00,Wunderground v.1.15,2013-07-18 07:00:00,
2013-07-18 03:10:00,77.7,70.7,30.03,North,32767,-999.0,0.0,79,0.00,,,0.00,Wunderground v.1.15,2013-07-18 07:10:00,
2013-07-18 03:20:00,77.5,70.8,30.03,North,32767,-999.0,0.0,80,0.00,,,0.00,Wunderground v.1.15,2013-07-18 07:20:00,
2013-07-18 03:25:00,77.5,70.5,30.03,North,32767,-999.0,0.0,79,0.00,,,0.00,Wunderground v.1.15,2013-07-18 07:25:00,
2013-07-18 03:35:00,77.6,70.6,30.02,North,32767,-999.0,0.0,79,0.00,,,0.00,Wunderground v.1.15,2013-07-18 07:35:00,
2013-07-18 03:45:00,77.7,70.7,30.03,North,32767,-999.0,0.0,79,0.00,,,0.00,Wunderground v.1.15,2013-07-18 07:45:00,
2013-07-18 03:55:00,77.6,70.6,30.03,North,32767,-999.0,0.0,79,0.00,,,0.00,Wunderground v.1.15,2013-07-18 07:55:00,
2013-07-18 04:00:00,77.5,70.8,30.03,North,32767,-999.0,0.0,80,0.00,,,0.00,Wunderground v.1.15,2013-07-18 08:00:00,
2013-07-18 04:10:00,77.3,71.0,30.02,North,32767,-999.0,0.0,81,0.00,,,0.00,Wunderground v.1.15,2013-07-18 08:10:00,
2013-07-18 04:15:00,77.2,70.9,30.02,North,32767,-999.0,0.0,81,0.00,,,0.00,Wunderground v.1.15,2013-07-18 08:15:00,
2013-07-18 04:20:00,77.2,70.9,30.02,North,32767,-999.0,0.0,81,0.00,,,0.00,Wunderground v.1.15,2013-07-18 08:20:00,
2013-07-18 04:25:00,77.1,71.2,30.02,North,32767,-999.0,0.0,82,0.00,,,0.00,Wunderground v.1.15,2013-07-18 08:25:00,
2013-07-18 04:30:00,77.0,71.1,30.02,North,32767,-999.0,0.0,82,0.00,,,0.00,Wunderground v.1.15,2013-07-18 08:30:00,
2013-07-18 04:35:00,76.9,71.3,30.02,North,32767,-999.0,0.0,83,0.00,,,0.00,Wunderground v.1.15,2013-07-18 08:35:00,
2013-07-18 04:45:00,76.7,71.5,30.02,North,32767,-999.0,0.0,84,0.00,,,0.00,Wunderground v.1.15,2013-07-18 08:45:00,
2013-07-18 04:50:00,76.6,71.4,30.02,North,32767,-999.0,0.0,84,0.00,,,0.00,Wunderground v.1.15,2013-07-18 08:50:00,
2013-07-18 04:55:00,76.4,71.2,30.03,North,32767,-999.0,0.0,84,0.00,,,0.00,Wunderground v.1.15,2013-07-18 08:55:00,
2013-07-18 05:00:00,76.3,71.5,30.03,North,32767,-999.0,0.0,85,0.00,,,0.00,Wunderground v.1.15,2013-07-18 09:00:00,
2013-07-18 05:10:00,76.1,71.3,30.02,North,32767,-999.0,0.0,85,0.00,,,0.00,Wunderground v.1.15,2013-07-18 09:10:00,
2013-07-18 05:20:00,76.1,71.3,30.02,North,32767,-999.0,0.0,85,0.00,,,0.00,Wunderground v.1.15,2013-07-18 09:20:00,
2013-07-18 05:25:00,75.9,71.1,30.02,North,32767,-999.0,0.0,85,0.00,,,0.00,Wunderground v.1.15,2013-07-18 09:25:00,
2013-07-18 05:35:00,75.8,71.3,30.02,North,32767,-999.0,0.0,86,0.00,,,0.00,Wunderground v.1.15,2013-07-18 09:35:00,
2013-07-18 05:45:00,75.8,71.3,30.03,North,32767,-999.0,0.0,86,0.00,,,0.00,Wunderground v.1.15,2013-07-18 09:45:00,
2013-07-18 05:50:00,75.8,71.3,30.03,North,32767,-999.0,0.0,86,0.00,,,0.00,Wunderground v.1.15,2013-07-18 09:50:00,
2013-07-18 06:00:00,76.0,71.5,30.03,North,32767,-999.0,0.0,86,0.00,,,0.00,Wunderground v.1.15,2013-07-18 10:00:00,
2013-07-18 06:10:00,76.2,71.7,30.03,North,32767,-999.0,0.0,86,0.00,,,0.00,Wunderground v.1.15,2013-07-18 10:10:00,
2013-07-18 06:20:00,76.0,71.5,30.04,North,32767,-999.0,0.0,86,0.00,,,0.00,Wunderground v.1.15,2013-07-18 10:20:00,
2013-07-18 06:25:00,75.8,71.7,30.04,North,32767,-999.0,0.0,87,0.00,,,0.00,Wunderground v.1.15,2013-07-18 10:25:00,
2013-07-18 06:30:00,75.6,71.8,30.04,North,32767,-999.0,0.0,88,0.00,,,0.00,Wunderground v.1.15,2013-07-18 10:30:00,
2013-07-18 06:35:00,75.5,71.7,30.04,North,32767,-999.0,0.0,88,0.00,,,0.00,Wunderground v.1.15,2013-07-18 10:35:00,
2013-07-18 06:45:00,75.7,71.9,30.04,North,32767,-999.0,0.0,88,0.00,,,0.00,Wunderground v.1.15,2013-07-18 10:45:00,
2013-07-18 06:50:00,75.8,72.0,30.04,North,32767,-999.0,0.0,88,0.00,,,0.00,Wunderground v.1.15,2013-07-18 10:50:00,
2013-07-18 06:55:00,75.9,71.8,30.04,North,32767,-999.0,0.0,87,0.00,,,0.00,Wunderground v.1.15,2013-07-18 10:55:00,
2013-07-18 07:00:00,76.1,71.9,30.04,North,32767,-999.0,0.0,87,0.00,,,0.00,Wunderground v.1.15,2013-07-18 11:00:00,
2013-07-18 07:10:00,76.2,72.0,30.04,North,32767,-999.0,0.0,87,0.00,,,0.00,Wunderground v.1.15,2013-07-18 11:10:00,
2013-07-18 07:15:00,76.4,72.2,30.04,North,32767,-999.0,0.0,87,0.00,,,0.00,Wunderground v.1.15,2013-07-18 11:15:00,
2013-07-18 07:25:00,76.6,72.4,30.04,North,32767,-999.0,0.0,87,0.00,,,0.00,Wunderground v.1.15,2013-07-18 11:25:00,
2013-07-18 07:30:00,76.7,72.9,30.04,North,32767,-999.0,0.0,88,0.00,,,0.00,Wunderground v.1.15,2013-07-18 11:30:00,
2013-07-18 07:40:00,76.7,72.9,30.04,North,32767,-999.0,0.0,88,0.00,,,0.00,Wunderground v.1.15,2013-07-18 11:40:00,
2013-07-18 07:45:00,76.8,73.0,30.04,North,32767,-999.0,0.0,88,0.00,,,0.00,Wunderground v.1.15,2013-07-18 11:45:00,
2013-07-18 07:50:00,77.0,73.2,30.04,North,32767,-999.0,0.0,88,0.00,,,0.00,Wunderground v.1.15,2013-07-18 11:50:00,
2013-07-18 08:00:00,77.3,73.1,30.04,ENE,62,0.0,0.0,87,0.00,,,0.00,Wunderground v.1.15,2013-07-18 12:00:00,
2013-07-18 08:10:00,77.6,73.1,30.04,ENE,73,0.0,0.0,86,0.00,,,0.00,Wunderground v.1.15,2013-07-18 12:10:00,
2013-07-18 08:20:00,77.9,73.4,30.05,East,99,0.0,0.0,86,0.00,,,0.00,Wunderground v.1.15,2013-07-18 12:20:00,
2013-07-18 08:25:00,77.9,73.7,30.05,ENE,77,0.0,0.0,87,0.00,,,0.00,Wunderground v.1.15,2013-07-18 12:25:00,
2013-07-18 08:30:00,77.9,73.7,30.05,ENE,77,0.0,0.0,87,0.00,,,0.00,Wunderground v.1.15,2013-07-18 12:30:00,
2013-07-18 08:40:00,77.9,73.7,30.05,NE,42,0.0,0.0,87,0.00,,,0.00,Wunderground v.1.15,2013-07-18 12:40:00,
2013-07-18 08:45:00,78.1,74.3,30.05,ENE,74,0.0,0.0,88,0.00,,,0.00,Wunderground v.1.15,2013-07-18 12:45:00,
2013-07-18 08:50:00,78.3,74.1,30.05,NE,53,0.0,0.0,87,0.00,,,0.00,Wunderground v.1.15,2013-07-18 12:50:00,
2013-07-18 08:55:00,78.6,74.4,30.05,NE,52,0.0,0.0,87,0.00,,,0.00,Wunderground v.1.15,2013-07-18 12:55:00,
2013-07-18 09:00:00,78.9,74.4,30.05,NE,52,0.0,0.0,86,0.00,,,0.00,Wunderground v.1.15,2013-07-18 13:00:00,
2013-07-18 09:10:00,79.3,74.7,30.05,East,90,0.0,0.0,86,0.00,,,0.00,Wunderground v.1.15,2013-07-18 13:10:00,
2013-07-18 09:15:00,79.6,74.7,30.05,ENE,69,0.0,0.0,85,0.00,,,0.00,Wunderground v.1.15,2013-07-18 13:15:00,
2013-07-18 09:25:00,80.2,74.9,30.05,ENE,63,0.0,0.0,84,0.00,,,0.00,Wunderground v.1.15,2013-07-18 13:25:00,
2013-07-18 09:30:00,80.5,75.2,30.05,ENE,66,0.0,0.0,84,0.00,,,0.00,Wunderground v.1.15,2013-07-18 13:30:00,
2013-07-18 09:35:00,80.7,75.8,30.05,NNE,33,0.0,0.0,85,0.00,,,0.00,Wunderground v.1.15,2013-07-18 13:35:00,
2013-07-18 09:45:00,81.2,75.5,30.05,NE,46,0.0,0.0,83,0.00,,,0.00,Wunderground v.1.15,2013-07-18 13:45:00,
2013-07-18 09:50:00,81.6,75.9,30.05,NE,55,0.0,0.0,83,0.00,,,0.00,Wunderground v.1.15,2013-07-18 13:50:00,
2013-07-18 09:55:00,81.9,75.9,30.05,NE,46,0.0,0.0,82,0.00,,,0.00,Wunderground v.1.15,2013-07-18 13:55:00,
2013-07-18 10:00:00,82.1,75.7,30.05,NE,49,0.0,0.0,81,0.00,,,0.00,Wunderground v.1.15,2013-07-18 14:00:00,
2013-07-18 10:10:00,82.6,76.2,30.05,NNE,13,0.0,0.0,81,0.00,,,0.00,Wunderground v.1.15,2013-07-18 14:10:00,
2013-07-18 10:15:00,82.8,76.0,30.05,East,98,0.0,0.0,80,0.00,,,0.00,Wunderground v.1.15,2013-07-18 14:15:00,
2013-07-18 10:20:00,83.2,76.0,30.05,ENE,77,0.0,0.0,79,0.00,,,0.00,Wunderground v.1.15,2013-07-18 14:20:00,
2013-07-18 10:30:00,84.1,76.5,30.04,NE,34,0.0,0.0,78,0.00,,,0.00,Wunderground v.1.15,2013-07-18 14:30:00,
2013-07-18 10:35:00,84.2,77.0,30.05,East,97,0.0,0.0,79,0.00,,,0.00,Wunderground v.1.15,2013-07-18 14:35:00,
2013-07-18 10:45:00,84.9,76.5,30.04,East,86,0.0,0.0,76,0.00,,,0.00,Wunderground v.1.15,2013-07-18 14:45:00,
2013-07-18 10:50:00,85.0,76.6,30.04,East,86,0.0,0.0,76,0.00,,,0.00,Wunderground v.1.15,2013-07-18 14:50:00,
2013-07-18 11:00:00,85.1,75.9,30.04,ENE,72,0.0,0.0,74,0.00,,,0.00,Wunderground v.1.15,2013-07-18 15:00:00,
2013-07-18 11:10:00,85.3,76.1,30.04,NNE,24,0.0,0.0,74,0.00,,,0.00,Wunderground v.1.15,2013-07-18 15:10:00,
2013-07-18 11:15:00,85.6,76.8,30.04,SE,129,0.0,0.0,75,0.00,,,0.00,Wunderground v.1.15,2013-07-18 15:15:00,
2013-07-18 11:25:00,86.1,76.8,30.04,ENE,75,0.0,0.0,74,0.00,,,0.00,Wunderground v.1.15,2013-07-18 15:25:00,
2013-07-18 11:35:00,86.3,76.2,30.04,East,88,0.0,0.0,72,0.00,,,0.00,Wunderground v.1.15,2013-07-18 15:35:00,
2013-07-18 11:40:00,85.9,75.4,30.04,NE,47,0.0,0.0,71,0.00,,,0.00,Wunderground v.1.15,2013-07-18 15:40:00,
2013-07-18 11:45:00,86.4,76.3,30.04,East,79,0.0,0.0,72,0.00,,,0.00,Wunderground v.1.15,2013-07-18 15:45:00,
2013-07-18 11:55:00,86.6,76.1,30.04,ENE,75,0.0,0.0,71,0.00,,,0.00,Wunderground v.1.15,2013-07-18 15:55:00,
2013-07-18 12:00:00,86.9,77.2,30.04,East,95,0.0,0.0,73,0.00,,,0.00,Wunderground v.1.15,2013-07-18 16:00:00,
2013-07-18 12:10:00,87.6,74.8,30.04,ENE,76,0.0,0.0,66,0.00,,,0.00,Wunderground v.1.15,2013-07-18 16:10:00,
2013-07-18 12:20:00,87.6,75.7,30.03,ENE,57,0.0,0.0,68,0.00,,,0.00,Wunderground v.1.15,2013-07-18 16:20:00,
2013-07-18 12:25:00,87.7,74.9,30.03,ENE,61,0.0,0.0,66,0.00,,,0.00,Wunderground v.1.15,2013-07-18 16:25:00,
2013-07-18 12:35:00,88.3,73.6,30.03,NE,49,0.0,0.0,62,0.00,,,0.00,Wunderground v.1.15,2013-07-18 16:35:00,
2013-07-18 12:45:00,88.3,75.9,30.03,East,82,0.0,0.0,67,0.00,,,0.00,Wunderground v.1.15,2013-07-18 16:45:00,
2013-07-18 12:50:00,88.5,75.2,30.03,ENE,64,0.0,0.0,65,0.00,,,0.00,Wunderground v.1.15,2013-07-18 16:50:00,
2013-07-18 13:00:00,89.5,74.3,30.02,ESE,108,0.0,0.0,61,0.00,,,0.00,Wunderground v.1.15,2013-07-18 17:00:00,
2013-07-18 13:10:00,89.3,74.6,30.02,NNE,29,0.0,0.0,62,0.00,,,0.00,Wunderground v.1.15,2013-07-18 17:10:00,
2013-07-18 13:15:00,89.7,76.4,30.02,NE,35,0.0,0.0,65,0.00,,,0.00,Wunderground v.1.15,2013-07-18 17:15:00,
2013-07-18 13:25:00,89.9,75.1,30.02,NE,41,0.0,0.0,62,0.00,,,0.00,Wunderground v.1.15,2013-07-18 17:25:00,
2013-07-18 13:30:00,90.1,74.8,30.02,NNW,330,0.0,0.0,61,0.00,,,0.00,Wunderground v.1.15,2013-07-18 17:30:00,
2013-07-18 13:40:00,90.7,74.9,30.02,NNW,330,0.0,0.0,60,0.00,,,0.00,Wunderground v.1.15,2013-07-18 17:40:00,
2013-07-18 13:45:00,91.0,75.7,30.02,South,186,0.0,0.0,61,0.00,,,0.00,Wunderground v.1.15,2013-07-18 17:45:00,
2013-07-18 13:50:00,91.2,72.8,30.02,ENE,66,0.0,0.0,55,0.00,,,0.00,Wunderground v.1.15,2013-07-18 17:50:00,
2013-07-18 14:00:00,91.3,73.4,30.01,NE,51,0.0,0.0,56,0.00,,,0.00,Wunderground v.1.15,2013-07-18 18:00:00,
2013-07-18 14:10:00,91.0,74.7,30.01,ENE,75,0.0,0.0,59,0.00,,,0.00,Wunderground v.1.15,2013-07-18 18:10:00,
2013-07-18 14:15:00,91.2,73.3,30.01,ENE,75,0.0,0.0,56,0.00,,,0.00,Wunderground v.1.15,2013-07-18 18:15:00,
2013-07-18 14:25:00,91.8,74.9,30.00,East,81,0.0,0.0,58,0.00,,,0.00,Wunderground v.1.15,2013-07-18 18:25:00,
2013-07-18 14:30:00,91.4,74.5,30.00,ENE,73,0.0,0.0,58,0.00,,,0.00,Wunderground v.1.15,2013-07-18 18:30:00,
2013-07-18 14:40:00,91.5,73.6,30.00,East,92,0.0,0.0,56,0.00,,,0.00,Wunderground v.1.15,2013-07-18 18:40:00,
2013-07-18 14:50:00,91.7,74.3,30.00,SW,217,0.0,0.0,57,0.00,,,0.00,Wunderground v.1.15,2013-07-18 18:50:00,
2013-07-18 15:00:00,91.5,75.1,29.99,ENE,67,0.0,0.0,59,0.00,,,0.00,Wunderground v.1.15,2013-07-18 19:00:00,
2013-07-18 15:05:00,91.3,76.0,29.99,ENE,69,0.0,0.0,61,0.00,,,0.00,Wunderground v.1.15,2013-07-18 19:05:00,
2013-07-18 15:15:00,91.5,73.6,29.99,ENE,57,0.0,0.0,56,0.00,,,0.00,Wunderground v.1.15,2013-07-18 19:15:00,
2013-07-18 15:25:00,91.9,76.0,29.99,East,84,0.0,0.0,60,0.00,,,0.00,Wunderground v.1.15,2013-07-18 19:25:00,
2013-07-18 15:35:00,92.1,73.6,29.98,East,87,0.0,0.0,55,0.00,,,0.00,Wunderground v.1.15,2013-07-18 19:35:00,
2013-07-18 15:45:00,92.5,74.0,29.98,ESE,113,0.0,0.0,55,0.00,,,0.00,Wunderground v.1.15,2013-07-18 19:45:00,
2013-07-18 15:50:00,92.8,73.7,29.98,ESE,113,0.0,0.0,54,0.00,,,0.00,Wunderground v.1.15,2013-07-18 19:50:00,
2013-07-18 15:55:00,92.9,73.2,29.98,ESE,113,0.0,0.0,53,0.00,,,0.00,Wunderground v.1.15,2013-07-18 19:55:00,
2013-07-18 16:00:00,93.3,72.5,29.97,ESE,113,0.0,0.0,51,0.00,,,0.00,Wunderground v.1.15,2013-07-18 20:00:00,
2013-07-18 16:10:00,93.5,72.7,29.97,SE,144,0.0,0.0,51,0.00,,,0.00,Wunderground v.1.15,2013-07-18 20:10:00,
2013-07-18 16:15:00,92.9,74.9,29.97,ESE,103,0.0,0.0,56,0.00,,,0.00,Wunderground v.1.15,2013-07-18 20:15:00,
2013-07-18 16:20:00,92.5,74.0,29.97,ESE,105,0.0,0.0,55,0.00,,,0.00,Wunderground v.1.15,2013-07-18 20:20:00,
2013-07-18 16:25:00,92.6,74.1,29.97,ESE,104,0.0,0.0,55,0.00,,,0.00,Wunderground v.1.15,2013-07-18 20:25:00,
2013-07-18 16:30:00,92.8,74.3,29.97,ESE,104,0.0,0.0,55,0.00,,,0.00,Wunderground v.1.15,2013-07-18 20:30:00,
2013-07-18 16:35:00,93.1,72.9,29.96,ESE,113,0.0,0.0,52,0.00,,,0.00,Wunderground v.1.15,2013-07-18 20:35:00,
2013-07-18 16:45:00,93.6,73.9,29.97,ESE,115,0.0,0.0,53,0.00,,,0.00,Wunderground v.1.15,2013-07-18 20:45:00,
2013-07-18 16:50:00,93.5,73.2,29.97,WSW,240,0.0,0.0,52,0.00,,,0.00,Wunderground v.1.15,2013-07-18 20:50:00,
2013-07-18 16:55:00,93.5,73.2,29.96,WSW,240,0.0,0.0,52,0.00,,,0.00,Wunderground v.1.15,2013-07-18 20:55:00,
2013-07-18 17:00:00,93.6,73.3,29.96,WSW,240,0.0,0.0,52,0.00,,,0.00,Wunderground v.1.15,2013-07-18 21:00:00,
2013-07-18 17:50:00,93.2,73.0,29.95,WSW,241,0.0,0.0,52,0.00,,,0.00,Wunderground v.1.15,2013-07-18 21:50:00,
2013-07-18 18:00:00,93.4,75.4,29.96,SW,235,0.0,0.0,56,0.00,,,0.00,Wunderground v.1.15,2013-07-18 22:00:00,